Regional Weather Roundup
Issued by NWS

Home | Current Version | Previous Version | Text Only | Print | Product List | Glossary On
Versions: 1 2 3 4 5 6 7 8 9 10 11 12 13 14 15 16 17 18 19 20 21 22 23 24 25 26
000
ASUS44 KJAN 271810
RWRMS

MISSISSIPPI HOURLY WEATHER ROUNDUP
NATIONAL WEATHER SERVICE JACKSON MS
100 PM CDT THU JUL 27 2017

NOTE: "FAIR: INDICATES FEW OR NO CLOUDS BELOW 12,000 FEET WITH NO
SIGNIFICANT WEATHER AND/OR OBSTRUCTIONS TO VISIBILITY.

MSZ001>002-007>008-010>013-018>021-025>028-034>036-271900-
NORTHWEST MISSISSIPPI

CITY           SKY/WX    TMP DP  RH WIND       PRES   REMARKS
BATESVILLE     FAIR      91  76  61 W7        30.02F HX 102
CLARKSDALE       N/A     91  79  66 W10       30.02F HX 107
CLEVELAND      FAIR      91  77  63 SW7       30.02F HX 104
GREENWOOD      MOSUNNY   92  77  61 VRB3      30.03F HX 105
6HR MIN TEMP:  74; 6HR MAX TEMP:  92;

GREENVILLE     MOSUNNY   92  76  59 SW8       30.03F HX 104
6HR MIN TEMP:  76; 6HR MAX TEMP:  92;

OLIVE BRANCH   PTSUNNY  N/A N/A N/A W12       30.01F
OXFORD         FAIR      91  72  52 W9        30.04F HX  98
TUNICA           N/A     90  75  62 W7        30.02F HX 100
WINONA         MOCLDY    89  76  66 SW3       30.04F HX  99
$$

MSZ003>006-009-014>017-022>024-029>033-037>039-271900-
NORTHEAST MISSISSIPPI

CITY           SKY/WX    TMP DP  RH WIND       PRES   REMARKS
COLUMBUS AFB   MOSUNNY   93  77  59 W7        30.02F HX 107
CORINTH        FAIR      91  73  55 SW6       30.01F HX 100
GOLDN TRIANGLE MOSUNNY   93  72  49 W5        29.99F HX 100
STARKVILLE     FAIR      91  72  52 W5        30.04F HX  98
TUPELO         SUNNY     94  69  44 SW8       30.02F HX  99
6HR MIN TEMP:  76; 6HR MAX TEMP:  96;

$$

MSZ040-058-271900-
CENTRAL MISSISSIPPI

CITY           SKY/WX    TMP DP  RH WIND       PRES   REMARKS
JACKSON INTL   MOSUNNY   92  75  57 S6        30.05F HX 103
6HR MIN TEMP:  73; 6HR MAX TEMP:  93;

JACKSON HAWKNS MOSUNNY   92  75  57 W8        30.06F HX 103
6HR MIN TEMP:  76; 6HR MAX TEMP:  93;

MADISON        FAIR      90  72  55 W5        30.05F HX  96
MERIDIAN KEY   MOSUNNY   93  73  52 CALM      30.04F HX 102
6HR MIN TEMP:  75; 6HR MAX TEMP:  95;

MERIDIAN NAS   MOSUNNY   93  69  45 W3        30.04F HX  98
6HR MIN TEMP:  76; 6HR MAX TEMP:  94;

RAYMOND          N/A     91  75  59 VRB5      30.05F HX 102
$$

MSZ059>079-271900-
SOUTH MISSISSIPPI

CITY           SKY/WX    TMP DP  RH WIND       PRES   REMARKS
COLUMBIA       FAIR      91  73  55 CALM      30.08F HX 100
HATTIESBURG    MOSUNNY   91  74  57 VRB3      30.06F HX 100
6HR MIN TEMP:  75; 6HR MAX TEMP:  92;

LAUREL         FAIR      91  70  49 W7        30.06F HX  97
MCCOMB         MOSUNNY   90  72  55 VRB3      30.07F HX  97
6HR MIN TEMP:  70; 6HR MAX TEMP:  91;

NATCHEZ        SUNNY     90  72  55 CALM      30.07F HX  97
6HR MIN TEMP:  74; 6HR MAX TEMP:  90;

PINE BELT      MOSUNNY   90  75  61 W3        30.07F HX 100
6HR MIN TEMP:  74; 6HR MAX TEMP:  93;

$$

MSZ080>082-271900-
COASTAL MISSISSIPPI

CITY           SKY/WX    TMP DP  RH WIND       PRES   REMARKS
BAY ST LOUIS   MOSUNNY   91  73  55 N6        30.04F HX 100
BILOXI         SUNNY     92  74  54 CALM      30.03F HX 102
6HR MIN TEMP:  76; 6HR MAX TEMP:  93;

PASCAGOULA     PTSUNNY   91  75  59 NE6       30.03F HX 101
6HR MIN TEMP:  75; 6HR MAX TEMP:  94;

GULFPORT       MOSUNNY   94  73  50 NW7       30.03F HX 103
6HR MIN TEMP:  76; 6HR MAX TEMP:  94;

$$

LAZ007>009-015>016-023>026-271900-
NORTHEAST LOUISIANA

CITY           SKY/WX    TMP DP  RH WIND       PRES   REMARKS
BASTROP        FAIR      93  74  53 W3        30.05F HX 102
TALLULAH/VBURG MOSUNNY   90  73  57 VRB3      30.05F HX  98
6HR MIN TEMP:  75; 6HR MAX TEMP:  91;

VIDALIA        FAIR      90  73  57 W5        30.05F HX  98
$$




USA.gov is the U.S. government's official web portal to all federal, state and local government web resources and services.